This demonstration page uses our WeatherBlox Daily Observations layout. Learn more.

Left ArrowRight Arrow

39.51506, -84.39828

Hourly Observations for March 29, 2021

Temp ( °F °C ) Dew Point ( °F °C ) Humidity (%) Winds ( mph kmh ) Pressure ( in mb ) Visibility ( mi km ) Precip ( " mm )
12:15 am 00:15 Clear 35 1.8 25 -3.9 66 66 W 7 11 30.21 1023 10 16 N/A
12:35 am 00:35 Clear 35 1.7 26 -3.4 69 69 W 6 9 30.22 1023 10 16 N/A
12:55 am 00:55 Clear 34 1.3 28 -2.5 76 76 W 6 9 30.22 1023 10 16 N/A
1:15 am 01:15 Clear 32 -0.1 28 -2.5 84 84 W 6 9 30.23 1024 10 16 N/A
1:35 am 01:35 Clear 32 undefined 27 -2.6 83 83 W 6 9 30.24 1024 10 16 N/A
2:00 am 02:00 Clear 32 undefined 27 -2.8 82 82 W 6 9 30.24 1024 10 16 N/A
2:15 am 02:15 Clear 33 0.6 27 -2.8 78 78 W 6 9 30.23 1024 10 16 N/A
2:35 am 02:35 Clear 33 0.6 27 -2.8 78 78 W 7 11 30.24 1024 10 16 N/A
2:55 am 02:55 Clear 33 0.6 28 -2.3 81 81 W 7 11 30.24 1024 10 16 N/A
3:15 am 03:15 Clear 32 0.2 27 -3 79 79 W 6 9 30.24 1024 10 16 N/A
3:35 am 03:35 Clear 32 -0.2 29 -1.7 90 90 WNW 6 9 30.25 1024 10 16 N/A
3:55 am 03:55 Clear 32 -0.1 29 -1.8 88 88 WNW 5 7 30.26 1025 10 16 N/A
4:15 am 04:15 Clear 30 -1 29 -1.6 96 96 W 5 7 30.26 1025 10 16 N/A
4:35 am 04:35 Clear 30 -1.2 29 -1.9 95 95 N N/A 30.26 1025 10 16 N/A
4:55 am 04:55 Clear 29 -1.5 26 -3.2 88 88 N N/A 30.26 1025 10 16 N/A
5:15 am 05:15 Clear 29 -1.7 28 -2.5 94 94 N N/A 30.27 1025 10 16 N/A
5:35 am 05:35 Clear 29 -1.5 28 -2.1 96 96 N N/A 30.28 1025 10 16 N/A
5:55 am 05:55 Clear 29 -1.4 29 -1.8 97 97 N N/A 30.28 1025 10 16 N/A
6:15 am 06:15 Clear 29 -1.8 29 -1.9 99 99 N N/A 30.28 1025 10 16 N/A
6:35 am 06:35 Clear 28 -2 27 -3 93 93 N N/A 30.29 1026 10 16 N/A
6:55 am 06:55 Clear 28 -2 N/A N/A N N/A 30.29 1026 10 16 N/A
7:15 am 07:15 Clear 27 -3 27 -3 100 100 N N/A 30.30 1026 10 16 N/A
7:35 am 07:35 Sunny 28 -2 N/A N/A N N/A 30.30 1026 10 16 N/A
7:55 am 07:55 Sunny 28 -2 27 -3 93 93 N N/A 30.31 1026 10 16 N/A
8:15 am 08:15 Sunny 28 -2.3 28 -2.5 99 99 N N/A 30.33 1027 10 16 N/A
8:35 am 08:35 Sunny 30 -1 30 -1.1 99 99 N N/A 30.33 1027 10 16 N/A
8:55 am 08:55 Sunny 33 0.5 32 -0.1 96 96 N N/A 30.33 1027 10 16 N/A
9:15 am 09:15 Sunny 35 1.9 31 -0.7 83 83 N N/A 30.33 1027 10 16 N/A
9:35 am 09:35 Sunny 37 2.9 30 -1.1 75 75 N N/A 30.33 1027 10 16 N/A
9:55 am 09:55 Sunny 39 3.8 29 -1.4 69 69 N N/A 30.33 1027 10 16 N/A
10:15 am 10:15 Sunny 40 4.3 29 -1.5 66 66 N N/A 30.33 1027 10 16 N/A
10:35 am 10:35 Sunny 41 5 30 -1.3 64 64 N N/A 30.33 1027 10 16 N/A
10:55 am 10:55 Sunny 43 6 29 -1.5 59 59 SSW 6 9 30.33 1027 10 16 N/A
11:15 am 11:15 Sunny 44 6.5 27 -2.6 53 53 SSW 8 13 30.33 1027 10 16 N/A
11:35 am 11:35 Sunny 45 7.1 24 -4.5 44 44 S 8 13 30.32 1027 10 16 N/A
11:55 am 11:55 Sunny 45 7.2 27 -2.9 49 49 SSW 8 13 30.32 1027 10 16 N/A
12:15 pm 12:15 Sunny 46 7.8 28 -2.3 49 49 SW 8 13 30.31 1027 10 16 N/A
12:35 pm 12:35 Sunny 46 7.7 27 -2.7 48 48 N N/A 30.30 1026 10 16 N/A
12:55 pm 12:55 Sunny 47 8.5 28 -2.3 47 47 SSW 6 9 30.28 1025 10 16 N/A
1:15 pm 13:15 Sunny 49 9.3 28 -2.2 45 45 SSW 6 9 30.27 1025 10 16 N/A
1:35 pm 13:35 Sunny 49 9.4 28 -2.5 44 44 SSW 7 11 30.27 1025 10 16 N/A
1:55 pm 13:55 Sunny 49 9.5 26 -3.5 40 40 N N/A 30.26 1025 10 16 N/A
2:15 pm 14:15 Sunny 51 10.4 28 -2.3 41 41 SW 7 11 30.26 1025 10 16 N/A
2:35 pm 14:35 Sunny 51 10.5 27 -3 39 39 SSW 3 6 30.25 1024 10 16 N/A
2:55 pm 14:55 Sunny 51 10.8 25 -3.9 36 36 N N/A 30.24 1024 10 16 N/A
3:15 pm 15:15 Sunny 53 11.4 25 -4 34 34 WSW 3 6 30.23 1024 10 16 N/A
3:35 pm 15:35 Sunny 54 12 28 -2 38 38 WSW 8 13 30.21 1023 10 16 N/A
3:55 pm 15:55 Sunny 54 12.4 27 -2.9 35 35 SW 7 11 30.20 1023 10 16 N/A
4:15 pm 16:15 Sunny 55 12.9 27 -2.7 34 34 SSW 9 15 30.20 1023 10 16 N/A
4:35 pm 16:35 Sunny 56 13.3 27 -2.9 33 33 SSW 8 13 30.19 1022 10 16 N/A
4:55 pm 16:55 Sunny 56 13.6 27 -3 32 32 SSW 8 13 30.18 1022 10 16 N/A
5:15 pm 17:15 Sunny 57 14.1 28 -2.4 32 32 SW 9 15 30.18 1022 10 16 N/A
5:35 pm 17:35 Sunny 57 14.1 25 -3.7 29 29 SSW 12 19 30.17 1022 10 16 N/A
5:55 pm 17:55 Sunny 57 14 26 -3.6 30 30 S 10 17 30.17 1022 10 16 N/A
6:15 pm 18:15 Sunny 57 14.1 27 -2.9 31 31 SSW 7 11 30.16 1021 10 16 N/A
6:35 pm 18:35 Sunny 58 14.2 27 -2.9 31 31 SSW 10 17 30.16 1021 10 16 N/A
6:55 pm 18:55 Sunny 57 14 28 -2.4 32 32 S 10 17 30.15 1021 10 16 N/A
7:15 pm 19:15 Sunny 57 13.7 28 -2.3 33 33 S 10 17 30.14 1021 10 16 N/A
7:35 pm 19:35 Sunny 56 13.2 28 -2.2 35 35 S 10 17 30.14 1021 10 16 N/A
7:55 pm 19:55 Sunny 55 12.6 28 -2.3 36 36 S 7 11 30.14 1021 10 16 N/A
8:15 pm 20:15 Clear 54 12.2 27 -2.7 36 36 S 8 13 30.14 1021 10 16 N/A
8:35 pm 20:35 Clear 54 12.2 27 -2.7 36 36 S 9 15 30.14 1021 10 16 N/A
8:55 pm 20:55 Clear 53 11.9 28 -2.3 37 37 SSW 10 17 30.15 1021 10 16 N/A
9:15 pm 21:15 Clear 53 11.6 28 -2.2 38 38 SSW 9 15 30.16 1021 10 16 N/A
9:35 pm 21:35 Clear 53 11.6 28 -2.2 38 38 S 12 19 30.15 1021 10 16 N/A
9:55 pm 21:55 Clear 52 11.1 28 -2 40 40 S 8 13 30.15 1021 10 16 N/A
10:15 pm 22:15 Clear 51 10.5 29 -1.8 43 43 SSE 8 13 30.15 1021 10 16 N/A
10:35 pm 22:35 Clear 50 9.9 30 -1.3 46 46 S 6 9 30.15 1021 10 16 N/A
10:55 pm 22:55 Clear 49 9.6 31 -0.5 50 50 S 5 7 30.15 1021 10 16 N/A
11:15 pm 23:15 Clear 49 9.5 31 -0.5 50 50 S 6 9 30.14 1021 10 16 N/A
11:35 pm 23:35 Clear 49 9.2 31 -0.5 51 51 S 6 9 30.14 1021 10 16 N/A
11:55 pm 23:55 Clear 44 6.6 33 0.4 65 65 N N/A 30.14 1021 10 16 N/A

Powered by AerisWeather